Location: Ciserano
(45.5833°N, 9.6000°E)
Time: 08:55:29
(UTC+00:00)

USA 306 - Pass Details

Date: 29 November 2020
Orbit: 565 x 579 km, 54.0° (Epoch: 22 January)

Event Time Altitude Azimuth Distance (km) Brightness Sun altitude
Exits shadow 05:49:10 10° 310° (NW) 1,900 5.0 -8.7°
Reaches altitude 10° 05:49:10 10° 311° (NW) 1,897 5.0 -8.7°
Maximum altitude 05:53:12 37° 19° (NNE) 902 3.9 -8.1°
Drops below altitude 10° 05:57:14 10° 88° (E) 1,892 6.8 -7.4°
Sets 05:59:37 0° 97° (E) 2,788 8.2 -7.0°
